Вернуться в каталог

STARLINK-37171

АктивенСвязьSSO
NORAD 68665·PAYLOAD·🇺🇸 United States

Запущен Apr 11, 2026 с Vandenberg Space Force Base

Loading…

Ближайшие Пролёты (ближайшие 24 часа)

TLE

СвежийSource: CelesTrak SupGP

Эпоха: Sep 14, 2026, 21:26 UTC

1 68665C 26077D   26257.89354167  .00005008  00000+0  15554-3 0  2570
2 68665  97.2848 127.8141 0002242  93.6517 150.5716 15.33419461    19

Отслеживайте STARLINK-37171 в реальном времени с AllMySat

Download on the App Store